When you browse on this site, cookies collect data to enhance your experience and personalize the content and advertising you see.
Visit our Privacy Policy to learn more. By continuing to use the site, you agree to this use of cookies and data.
  • In Spain
  • List of Countries
  • For 7 days
  • Water Temperature
  • Satellite Maps
  • Weather Map
  • Weather Widgets
  • user-avatar
    Login

    Hourly Weather Tirana

    Today, 24 July, Wednesday

    Time Temperature Precipitation Wind Pressure Humidity
    00:00 +26°C° 0 mm 2 mps 752 mmHg 59%
    01:00 +25°C° 0 mm 1 mps 752 mmHg 58%
    02:00 +25°C° 0 mm 2 mps 752 mmHg 57%
    03:00 +25°C° 0 mm 3 mps 752 mmHg 56%
    04:00 +24°C° 0 mm 3 mps 752 mmHg 55%
    05:00 +26°C° 0 mm 3 mps 752 mmHg 51%
    06:00 +28°C° 0 mm 3 mps 752 mmHg 46%
    07:00 +29°C° 0 mm 4 mps 752 mmHg 42%
    08:00 +32°C° 0 mm 4 mps 752 mmHg 38%
    09:00 +34°C° 0 mm 5 mps 752 mmHg 33%
    10:00 +36°C° 0 mm 5 mps 752 mmHg 29%
    11:00 +38°C° 0 mm 6 mps 752 mmHg 28%
    12:00 +38°C° 0 mm 7 mps 752 mmHg 26%
    13:00 +39°C° 0 mm 8 mps 752 mmHg 25%
    14:00 +39°C° 0 mm 8 mps 752 mmHg 26%
    15:00 +39°C° 0 mm 8 mps 751 mmHg 27%
    16:00 +38°C° 0 mm 8 mps 751 mmHg 28%
    17:00 +35°C° 0 mm 8 mps 751 mmHg 34%
    18:00 +33°C° 0 mm 7 mps 752 mmHg 40%
    19:00 +30°C° 0 mm 6 mps 752 mmHg 46%
    20:00 +29°C° 0 mm 5 mps 752 mmHg 49%
    21:00 +28°C° 0 mm 4 mps 753 mmHg 52%
    22:00 +27°C° 0 mm 3 mps 753 mmHg 55%
    23:00 +26°C° 0 mm 3 mps 753 mmHg 55%

    Tomorrow, 25 July, Thursday

    Time Temperature Precipitation Wind Pressure Humidity
    00:00 +26°C° 0 mm 3 mps 753 mmHg 54%
    01:00 +25°C° 0 mm 3 mps 753 mmHg 54%
    02:00 +25°C° 0 mm 3 mps 753 mmHg 54%
    03:00 +24°C° 0 mm 3 mps 753 mmHg 54%
    04:00 +24°C° 0 mm 3 mps 753 mmHg 54%
    05:00 +26°C° 0 mm 3 mps 753 mmHg 51%
    06:00 +27°C° 0 mm 3 mps 753 mmHg 47%
    07:00 +29°C° 0 mm 2 mps 754 mmHg 43%
    08:00 +31°C° 0 mm 2 mps 754 mmHg 38%
    09:00 +34°C° 0 mm 2 mps 754 mmHg 34%
    10:00 +35°C° 0 mm 1 mps 754 mmHg 30%
    11:00 +36°C° 0 mm 2 mps 754 mmHg 30%
    12:00 +36°C° 0 mm 3 mps 754 mmHg 31%
    13:00 +36°C° 0 mm 5 mps 753 mmHg 32%
    14:00 +36°C° 0 mm 4 mps 753 mmHg 35%
    15:00 +35°C° 0 mm 4 mps 753 mmHg 37%
    16:00 +34°C° 0 mm 4 mps 753 mmHg 39%
    17:00 +31°C° 0 mm 3 mps 753 mmHg 44%
    18:00 +29°C° 0 mm 2 mps 753 mmHg 49%
    19:00 +28°C° 0 mm 2 mps 753 mmHg 55%
    20:00 +27°C° 0 mm 1 mps 753 mmHg 56%
    21:00 +26°C° 0 mm 1 mps 753 mmHg 57%
    22:00 +26°C° 0 mm 1 mps 754 mmHg 58%
    23:00 +25°C° 0 mm 1 mps 753 mmHg 60%

    Day after tomorrow, 26 July, Friday

    Time Temperature Precipitation Wind Pressure Humidity
    00:00 +25°C° 0 mm 1 mps 753 mmHg 61%
    01:00 +25°C° 0 mm 1 mps 753 mmHg 62%
    02:00 +25°C° 0 mm 1 mps 753 mmHg 63%
    03:00 +24°C° 0 mm 1 mps 753 mmHg 63%
    04:00 +24°C° 0 mm 1 mps 752 mmHg 64%
    05:00 +26°C° 0 mm 1 mps 752 mmHg 59%
    06:00 +27°C° 0 mm 1 mps 752 mmHg 53%
    07:00 +29°C° 0 mm 1 mps 752 mmHg 48%
    08:00 +31°C° 0 mm 1 mps 752 mmHg 44%
    09:00 +32°C° 0 mm 2 mps 752 mmHg 40%
    10:00 +35°C° 0 mm 2 mps 752 mmHg 36%
    11:00 +35°C° 0 mm 3 mps 751 mmHg 36%
    12:00 +36°C° 0 mm 3 mps 751 mmHg 35%
    13:00 +36°C° 0 mm 4 mps 751 mmHg 35%
    14:00 +35°C° 0 mm 4 mps 750 mmHg 36%
    15:00 +35°C° 0 mm 3 mps 750 mmHg 37%
    16:00 +34°C° 0 mm 3 mps 750 mmHg 38%
    17:00 +31°C° 0 mm 2 mps 749 mmHg 44%
    18:00 +29°C° 0 mm 1 mps 749 mmHg 51%
    19:00 +27°C° 0 mm 1 mps 749 mmHg 57%
    20:00 +27°C° 0 mm 1 mps 749 mmHg 59%
    21:00 +26°C° 0 mm 1 mps 749 mmHg 61%
    22:00 +25°C° 0 mm 1 mps 750 mmHg 63%
    23:00 +25°C° 0 mm 1 mps 749 mmHg 65%

    27 July, Saturday

    Time Temperature Precipitation Wind Pressure Humidity
    00:00 +24°C° 0 mm 1 mps 749 mmHg 67%
    01:00 +24°C° 0 mm 1 mps 749 mmHg 69%
    02:00 +23°C° 0 mm 1 mps 749 mmHg 70%
    03:00 +23°C° 0 mm 1 mps 748 mmHg 70%
    04:00 +23°C° 0 mm 2 mps 748 mmHg 70%
    05:00 +25°C° 0 mm 2 mps 748 mmHg 64%
    06:00 +27°C° 0 mm 2 mps 748 mmHg 57%
    07:00 +29°C° 0 mm 2 mps 748 mmHg 50%
    08:00 +31°C° 0 mm 2 mps 748 mmHg 44%
    09:00 +34°C° 0 mm 3 mps 748 mmHg 39%
    10:00 +35°C° 0 mm 3 mps 748 mmHg 33%
    11:00 +35°C° 0 mm 4 mps 748 mmHg 34%
    12:00 +35°C° 0 mm 4 mps 747 mmHg 36%
    13:00 +35°C° 0 mm 4 mps 747 mmHg 37%
    14:00 +35°C° 0 mm 4 mps 746 mmHg 38%
    15:00 +34°C° 0 mm 3 mps 746 mmHg 39%
    16:00 +34°C° 0 mm 2 mps 746 mmHg 40%
    17:00 +31°C° 0 mm 3 mps 746 mmHg 46%
    18:00 +29°C° 0 mm 3 mps 746 mmHg 52%
    19:00 +27°C° 0 mm 3 mps 746 mmHg 58%
    20:00 +26°C° 0 mm 3 mps 746 mmHg 60%
    21:00 +25°C° 0 mm 2 mps 746 mmHg 62%
    22:00 +25°C° 0 mm 2 mps 746 mmHg 64%
    23:00 +24°C° 0.1 mm 2 mps 746 mmHg 65%

    28 July, Sunday

    Time Temperature Precipitation Wind Pressure Humidity
    00:00 +24°C° 0.1 mm 2 mps 746 mmHg 65%
    01:00 +24°C° 0.1 mm 2 mps 746 mmHg 66%
    02:00 +24°C° 0.5 mm 2 mps 745 mmHg 67%
    03:00 +23°C° 0.5 mm 2 mps 745 mmHg 68%
    04:00 +23°C° 0.5 mm 2 mps 745 mmHg 68%
    05:00 +25°C° 0.2 mm 2 mps 745 mmHg 62%
    06:00 +26°C° 0.2 mm 1 mps 745 mmHg 56%
    07:00 +28°C° 0.2 mm 1 mps 745 mmHg 50%
    08:00 +30°C° 0 mm 1 mps 745 mmHg 44%
    09:00 +32°C° 0 mm 1 mps 745 mmHg 39%
    10:00 +34°C° 0 mm 1 mps 745 mmHg 33%
    11:00 +36°C° 0 mm 3 mps 745 mmHg 32%
    12:00 +36°C° 0 mm 4 mps 745 mmHg 32%
    13:00 +36°C° 0 mm 6 mps 744 mmHg 31%
    14:00 +35°C° 0 mm 5 mps 744 mmHg 37%
    15:00 +34°C° 0 mm 4 mps 744 mmHg 42%
    16:00 +31°C° 0 mm 3 mps 744 mmHg 48%
    17:00 +30°C° 0 mm 3 mps 744 mmHg 51%
    18:00 +29°C° 0 mm 2 mps 744 mmHg 53%
    19:00 +28°C° 0 mm 2 mps 744 mmHg 56%
    20:00 +27°C° 0 mm 3 mps 744 mmHg 60%
    21:00 +27°C° 0 mm 4 mps 744 mmHg 64%
    22:00 +26°C° 0 mm 5 mps 744 mmHg 68%
    23:00 +25°C° 0 mm 5 mps 744 mmHg 73%

    29 July, Monday

    Time Temperature Precipitation Wind Pressure Humidity
    00:00 +23°C° 0 mm 5 mps 744 mmHg 78%
    01:00 +23°C° 0 mm 5 mps 744 mmHg 84%
    02:00 +22°C° 0.4 mm 5 mps 744 mmHg 84%
    03:00 +22°C° 0.4 mm 5 mps 744 mmHg 85%
    04:00 +22°C° 0.4 mm 4 mps 744 mmHg 85%
    05:00 +23°C° 0.1 mm 4 mps 744 mmHg 78%
    06:00 +26°C° 0.1 mm 3 mps 744 mmHg 71%
    07:00 +27°C° 0.1 mm 3 mps 744 mmHg 64%
    08:00 +29°C° 0.1 mm 3 mps 744 mmHg 60%
    09:00 +30°C° 0.1 mm 3 mps 744 mmHg 55%
    10:00 +32°C° 0.1 mm 4 mps 745 mmHg 51%
    11:00 +32°C° 0.4 mm 4 mps 744 mmHg 53%
    12:00 +32°C° 0.4 mm 5 mps 744 mmHg 54%
    13:00 +32°C° 0.4 mm 5 mps 744 mmHg 56%
    14:00 +30°C° 0.4 mm 4 mps 744 mmHg 58%
    15:00 +29°C° 0.4 mm 3 mps 744 mmHg 61%
    16:00 +28°C° 0.4 mm 2 mps 744 mmHg 63%
    17:00 +27°C° 0.5 mm 2 mps 744 mmHg 67%
    18:00 +26°C° 0.5 mm 2 mps 744 mmHg 72%
    19:00 +26°C° 0.5 mm 2 mps 745 mmHg 76%
    20:00 +25°C° 0.3 mm 2 mps 745 mmHg 77%
    21:00 +24°C° 0.3 mm 2 mps 746 mmHg 78%
    22:00 +23°C° 0.3 mm 2 mps 746 mmHg 80%
    23:00 +23°C° 0 mm 2 mps 746 mmHg 81%
    Show more